Time,TemperatureF,DewpointF,PressureIn,WindDirection,WindDirectionDegrees,WindSpeedMPH,WindSpeedGustMPH,Humidity,HourlyPrecipIn,Conditions,Clouds,dailyrainin,SoftwareType,DateUTC
2013-04-20 00:03:00,34.4,28.0,30.08,NW,321,5.0,8.0,77,0.00,,,0.01,weatherlink.com 1.10,2013-04-20 05:03:00,
2013-04-20 00:18:00,34.1,28.0,30.09,NW,307,2.0,7.0,77,0.00,,,0.01,weatherlink.com 1.10,2013-04-20 05:18:00,
2013-04-20 00:33:00,33.9,28.0,30.09,NW,320,2.0,7.0,78,0.00,,,0.01,weatherlink.com 1.10,2013-04-20 05:33:00,
2013-04-20 01:03:00,33.5,28.0,30.10,WNW,284,4.0,6.0,79,0.00,,,0.01,weatherlink.com 1.10,2013-04-20 06:03:00,
2013-04-20 01:18:00,33.3,27.0,30.10,WNW,296,4.0,6.0,79,0.00,,,0.01,weatherlink.com 1.10,2013-04-20 06:18:00,
2013-04-20 01:33:00,33.0,27.0,30.11,NW,310,7.0,7.0,80,0.00,,,0.01,weatherlink.com 1.10,2013-04-20 06:33:00,
2013-04-20 01:48:00,32.9,27.0,30.11,NW,316,1.0,6.0,80,0.00,,,0.01,weatherlink.com 1.10,2013-04-20 06:48:00,
2013-04-20 02:03:00,32.5,27.0,30.11,NW,314,2.0,5.0,80,0.00,,,0.01,weatherlink.com 1.10,2013-04-20 07:03:00,
2013-04-20 02:18:00,32.4,27.0,30.12,WNW,291,2.0,5.0,81,0.00,,,0.00,weatherlink.com 1.10,2013-04-20 07:18:00,
2013-04-20 02:33:00,32.3,27.0,30.12,WNW,302,3.0,5.0,80,0.00,,,0.00,weatherlink.com 1.10,2013-04-20 07:33:00,
2013-04-20 02:48:00,32.1,27.0,30.12,NW,321,2.0,5.0,81,0.00,,,0.00,weatherlink.com 1.10,2013-04-20 07:48:00,
2013-04-20 03:04:00,31.8,27.0,30.12,NW,317,5.0,5.0,82,0.00,,,0.00,weatherlink.com 1.10,2013-04-20 08:04:00,
2013-04-20 03:19:00,31.7,27.0,30.13,NW,319,2.0,5.0,82,0.00,,,0.00,weatherlink.com 1.10,2013-04-20 08:19:00,
2013-04-20 03:34:00,31.3,27.0,30.13,NW,320,2.0,3.0,83,0.00,,,0.00,weatherlink.com 1.10,2013-04-20 08:34:00,
2013-04-20 03:49:00,31.1,27.0,30.14,NW,309,1.0,5.0,83,0.00,,,0.00,weatherlink.com 1.10,2013-04-20 08:49:00,
2013-04-20 04:04:00,30.9,26.0,30.14,NW,306,1.0,4.0,83,0.00,,,0.00,weatherlink.com 1.10,2013-04-20 09:04:00,
2013-04-20 04:19:00,30.5,26.0,30.14,WNW,299,1.0,4.0,84,0.00,,,0.00,weatherlink.com 1.10,2013-04-20 09:19:00,
2013-04-20 04:34:00,30.4,26.0,30.15,WNW,299,3.0,5.0,85,0.00,,,0.00,weatherlink.com 1.10,2013-04-20 09:34:00,
2013-04-20 04:49:00,30.5,27.0,30.16,NW,309,1.0,6.0,85,0.00,,,0.00,weatherlink.com 1.10,2013-04-20 09:49:00,
2013-04-20 05:04:00,30.6,26.0,30.16,NW,320,0.0,6.0,84,0.00,,,0.00,weatherlink.com 1.10,2013-04-20 10:04:00,
2013-04-20 05:19:00,30.6,26.0,30.16,NNW,334,3.0,6.0,84,0.00,,,0.00,weatherlink.com 1.10,2013-04-20 10:19:00,
2013-04-20 05:34:00,30.4,26.0,30.17,NW,313,3.0,6.0,83,0.00,,,0.00,weatherlink.com 1.10,2013-04-20 10:34:00,
2013-04-20 05:49:00,30.0,25.0,30.18,NW,315,1.0,3.0,83,0.00,,,0.00,weatherlink.com 1.10,2013-04-20 10:49:00,
2013-04-20 06:04:00,29.6,25.0,30.19,NW,311,1.0,4.0,84,0.00,,,0.00,weatherlink.com 1.10,2013-04-20 11:04:00,
2013-04-20 06:19:00,29.0,25.0,30.20,NW,311,0.0,2.0,86,0.00,,,0.00,weatherlink.com 1.10,2013-04-20 11:19:00,
2013-04-20 06:34:00,28.7,25.0,30.21,NW,311,0.0,2.0,87,0.00,,,0.00,weatherlink.com 1.10,2013-04-20 11:34:00,
2013-04-20 06:49:00,28.8,25.0,30.22,NW,311,0.0,2.0,87,0.00,,,0.00,weatherlink.com 1.10,2013-04-20 11:49:00,
2013-04-20 07:04:00,29.2,26.0,30.23,NW,311,3.0,3.0,86,0.00,,,0.00,weatherlink.com 1.10,2013-04-20 12:04:00,
2013-04-20 07:19:00,30.1,26.0,30.24,WSW,246,3.0,4.0,85,0.00,,,0.00,weatherlink.com 1.10,2013-04-20 12:19:00,
2013-04-20 07:34:00,31.2,27.0,30.25,West,263,3.0,5.0,84,0.00,,,0.00,weatherlink.com 1.10,2013-04-20 12:34:00,
2013-04-20 07:49:00,32.1,28.0,30.26,West,266,2.0,7.0,83,0.00,,,0.00,weatherlink.com 1.10,2013-04-20 12:49:00,
2013-04-20 08:06:00,33.1,28.0,30.27,West,281,5.0,7.0,81,0.00,,,0.00,weatherlink.com 1.10,2013-04-20 13:06:00,
2013-04-20 08:19:00,33.8,29.0,30.27,WNW,300,3.0,8.0,82,0.00,,,0.00,weatherlink.com 1.10,2013-04-20 13:19:00,
2013-04-20 08:34:00,34.7,29.0,30.28,NNW,327,5.0,9.0,78,0.00,,,0.00,weatherlink.com 1.10,2013-04-20 13:34:00,
2013-04-20 08:49:00,35.4,29.0,30.28,NW,304,4.0,7.0,78,0.00,,,0.00,weatherlink.com 1.10,2013-04-20 13:49:00,
2013-04-20 09:04:00,36.2,29.0,30.29,NW,306,4.0,8.0,76,0.00,,,0.00,weatherlink.com 1.10,2013-04-20 14:04:00,
2013-04-20 09:20:00,37.0,29.0,30.29,West,279,4.0,6.0,74,0.00,,,0.00,weatherlink.com 1.10,2013-04-20 14:20:00,
2013-04-20 09:35:00,38.0,30.0,30.30,NNW,340,6.0,8.0,73,0.00,,,0.00,weatherlink.com 1.10,2013-04-20 14:35:00,
2013-04-20 09:50:00,38.8,30.0,30.30,NNW,331,6.0,7.0,70,0.00,,,0.00,weatherlink.com 1.10,2013-04-20 14:50:00,
2013-04-20 10:05:00,39.0,30.0,30.31,NNW,344,2.0,8.0,69,0.00,,,0.00,weatherlink.com 1.10,2013-04-20 15:05:00,
2013-04-20 10:20:00,39.7,29.0,30.31,NNW,343,3.0,10.0,66,0.00,,,0.00,weatherlink.com 1.10,2013-04-20 15:20:00,
2013-04-20 10:35:00,40.7,30.0,30.32,West,275,5.0,7.0,65,0.00,,,0.00,weatherlink.com 1.10,2013-04-20 15:35:00,
2013-04-20 10:50:00,40.5,29.0,30.32,NW,325,4.0,7.0,63,0.00,,,0.00,weatherlink.com 1.10,2013-04-20 15:50:00,
2013-04-20 11:05:00,41.9,28.0,30.32,West,267,3.0,8.0,59,0.00,,,0.00,weatherlink.com 1.10,2013-04-20 16:05:00,
2013-04-20 11:20:00,42.3,27.0,30.33,NW,319,2.0,9.0,55,0.00,,,0.00,weatherlink.com 1.10,2013-04-20 16:20:00,
2013-04-20 11:35:00,43.2,28.0,30.33,North,349,3.0,7.0,56,0.00,,,0.00,weatherlink.com 1.10,2013-04-20 16:35:00,
2013-04-20 11:50:00,43.8,27.0,30.33,SW,227,3.0,8.0,53,0.00,,,0.00,weatherlink.com 1.10,2013-04-20 16:50:00,
2013-04-20 12:05:00,45.0,28.0,30.33,SW,217,2.0,5.0,51,0.00,,,0.00,weatherlink.com 1.10,2013-04-20 17:05:00,
2013-04-20 12:20:00,45.6,29.0,30.33,NW,315,3.0,6.0,52,0.00,,,0.00,weatherlink.com 1.10,2013-04-20 17:20:00,
2013-04-20 12:35:00,45.1,27.0,30.32,West,271,5.0,9.0,50,0.00,,,0.00,weatherlink.com 1.10,2013-04-20 17:35:00,
2013-04-20 12:50:00,45.1,27.0,30.32,NNE,14,2.0,8.0,50,0.00,,,0.00,weatherlink.com 1.10,2013-04-20 17:50:00,
2013-04-20 13:05:00,46.1,27.0,30.32,NE,47,0.0,9.0,48,0.00,,,0.00,weatherlink.com 1.10,2013-04-20 18:05:00,
2013-04-20 13:20:00,46.7,28.0,30.32,North,350,2.0,8.0,48,0.00,,,0.00,weatherlink.com 1.10,2013-04-20 18:20:00,
2013-04-20 13:35:00,47.0,29.0,30.32,NNW,345,3.0,9.0,49,0.00,,,0.00,weatherlink.com 1.10,2013-04-20 18:35:00,
2013-04-20 13:50:00,47.4,29.0,30.32,NNW,343,4.0,10.0,49,0.00,,,0.00,weatherlink.com 1.10,2013-04-20 18:50:00,
2013-04-20 14:05:00,47.5,26.0,30.32,North,9,3.0,7.0,44,0.00,,,0.00,weatherlink.com 1.10,2013-04-20 19:05:00,
2013-04-20 14:20:00,48.7,30.0,30.32,NW,305,6.0,7.0,48,0.00,,,0.00,weatherlink.com 1.10,2013-04-20 19:20:00,
2013-04-20 14:35:00,48.6,30.0,30.32,NNW,332,4.0,10.0,48,0.00,,,0.00,weatherlink.com 1.10,2013-04-20 19:35:00,
2013-04-20 14:50:00,48.8,29.0,30.31,NNW,339,4.0,12.0,46,0.00,,,0.00,weatherlink.com 1.10,2013-04-20 19:50:00,
2013-04-20 15:05:00,49.6,29.0,30.31,NNW,336,6.0,10.0,46,0.00,,,0.00,weatherlink.com 1.10,2013-04-20 20:05:00,
2013-04-20 15:22:00,49.3,27.0,30.31,North,355,4.0,6.0,42,0.00,,,0.00,weatherlink.com 1.10,2013-04-20 20:22:00,
2013-04-20 15:35:00,50.2,29.0,30.31,NNE,22,5.0,9.0,45,0.00,,,0.00,weatherlink.com 1.10,2013-04-20 20:35:00,
2013-04-20 15:50:00,49.3,26.0,30.30,NW,321,2.0,9.0,40,0.00,,,0.00,weatherlink.com 1.10,2013-04-20 20:50:00,
2013-04-20 16:05:00,49.4,25.0,30.30,North,5,1.0,7.0,39,0.00,,,0.00,weatherlink.com 1.10,2013-04-20 21:05:00,
2013-04-20 16:20:00,50.0,28.0,30.30,NW,323,7.0,9.0,43,0.00,,,0.00,weatherlink.com 1.10,2013-04-20 21:20:00,
2013-04-20 16:35:00,49.9,26.0,30.30,WNW,289,6.0,7.0,39,0.00,,,0.00,weatherlink.com 1.10,2013-04-20 21:35:00,
2013-04-20 16:50:00,50.3,27.0,30.30,NW,319,4.0,5.0,40,0.00,,,0.00,weatherlink.com 1.10,2013-04-20 21:50:00,
2013-04-20 17:05:00,50.5,26.0,30.30,SSW,192,1.0,6.0,39,0.00,,,0.00,weatherlink.com 1.10,2013-04-20 22:05:00,
2013-04-20 17:20:00,50.6,27.0,30.30,NNW,329,4.0,9.0,41,0.00,,,0.00,weatherlink.com 1.10,2013-04-20 22:20:00,
2013-04-20 17:35:00,50.1,26.0,30.31,North,9,5.0,6.0,40,0.00,,,0.00,weatherlink.com 1.10,2013-04-20 22:35:00,
2013-04-20 17:50:00,49.8,26.0,30.31,NE,51,1.0,6.0,39,0.00,,,0.00,weatherlink.com 1.10,2013-04-20 22:50:00,
2013-04-20 18:05:00,49.9,27.0,30.30,ENE,60,1.0,6.0,41,0.00,,,0.00,weatherlink.com 1.10,2013-04-20 23:05:00,
2013-04-20 18:20:00,49.6,27.0,30.30,ESE,116,1.0,11.0,42,0.00,,,0.00,weatherlink.com 1.10,2013-04-20 23:20:00,
2013-04-20 18:35:00,49.2,27.0,30.30,SE,134,5.0,6.0,43,0.00,,,0.00,weatherlink.com 1.10,2013-04-20 23:35:00,
2013-04-20 18:50:00,48.7,27.0,30.31,East,100,1.0,4.0,43,0.00,,,0.00,weatherlink.com 1.10,2013-04-20 23:50:00,
2013-04-20 19:05:00,47.9,28.0,30.31,East,90,0.0,3.0,46,0.00,,,0.00,weatherlink.com 1.10,2013-04-21 00:05:00,
2013-04-20 19:20:00,47.1,28.0,30.32,East,91,1.0,3.0,47,0.00,,,0.00,weatherlink.com 1.10,2013-04-21 00:20:00,
2013-04-20 19:35:00,45.9,28.0,30.32,ESE,112,1.0,3.0,49,0.00,,,0.00,weatherlink.com 1.10,2013-04-21 00:35:00,
2013-04-20 19:50:00,44.9,28.0,30.33,ESE,111,1.0,2.0,51,0.00,,,0.00,weatherlink.com 1.10,2013-04-21 00:50:00,
2013-04-20 20:06:00,43.8,28.0,30.34,ESE,111,0.0,1.0,54,0.00,,,0.00,weatherlink.com 1.10,2013-04-21 01:06:00,
2013-04-20 20:21:00,42.7,27.0,30.34,ESE,111,0.0,0.0,55,0.00,,,0.00,weatherlink.com 1.10,2013-04-21 01:21:00,
2013-04-20 20:36:00,41.7,28.0,30.35,ESE,111,0.0,0.0,58,0.00,,,0.00,weatherlink.com 1.10,2013-04-21 01:36:00,
2013-04-20 20:51:00,41.0,28.0,30.36,ESE,111,0.0,0.0,60,0.00,,,0.00,weatherlink.com 1.10,2013-04-21 01:51:00,
2013-04-20 21:06:00,40.1,28.0,30.37,ESE,111,0.0,0.0,62,0.00,,,0.00,weatherlink.com 1.10,2013-04-21 02:06:00,
2013-04-20 21:21:00,39.4,28.0,30.37,ESE,111,0.0,1.0,65,0.00,,,0.00,weatherlink.com 1.10,2013-04-21 02:21:00,
2013-04-20 21:36:00,39.0,29.0,30.38,ESE,111,0.0,1.0,67,0.00,,,0.00,weatherlink.com 1.10,2013-04-21 02:36:00,
2013-04-20 21:51:00,39.2,29.0,30.38,ESE,111,0.0,1.0,67,0.00,,,0.00,weatherlink.com 1.10,2013-04-21 02:51:00,
2013-04-20 22:06:00,39.0,30.0,30.38,ESE,111,0.0,1.0,70,0.00,,,0.00,weatherlink.com 1.10,2013-04-21 03:06:00,
2013-04-20 22:21:00,39.2,31.0,30.38,ESE,104,0.0,2.0,71,0.00,,,0.00,weatherlink.com 1.10,2013-04-21 03:21:00,
2013-04-20 22:38:00,39.3,30.0,30.38,ESE,104,0.0,2.0,69,0.00,,,0.00,weatherlink.com 1.10,2013-04-21 03:38:00,
2013-04-20 22:51:00,39.6,30.0,30.38,ESE,114,2.0,7.0,68,0.00,,,0.00,weatherlink.com 1.10,2013-04-21 03:51:00,
2013-04-20 23:06:00,40.6,30.0,30.38,SE,137,2.0,7.0,67,0.00,,,0.00,weatherlink.com 1.10,2013-04-21 04:06:00,
2013-04-20 23:21:00,41.0,31.0,30.38,ESE,117,2.0,8.0,67,0.00,,,0.00,weatherlink.com 1.10,2013-04-21 04:21:00,
2013-04-20 23:36:00,41.0,30.0,30.39,SE,143,3.0,7.0,66,0.00,,,0.00,weatherlink.com 1.10,2013-04-21 04:36:00,
2013-04-20 23:51:00,40.6,30.0,30.39,ESE,108,2.0,6.0,67,0.00,,,0.00,weatherlink.com 1.10,2013-04-21 04:51:00,